Whiteman AFB, MO

6:14 AM CST on December 17, 2017 (GMT -0600)
Whiteman Air Force Base

Weather History for KSZL - April, 2013

Change the Weather History Date:

Monday, April 8, 2013

  Actual Average Record
Temperature  
Mean Temperature 66 °F -  
Max Temperature 74 °F 61 °F 84 °F (2001)
Min Temperature 57 °F 41 °F 23 °F (2007)
Growing Degree Days 16 (Base 50)    
Moisture  
Dew Point 61 °F    
Average Humidity 88    
Maximum Humidity 100    
Minimum Humidity 69    
Precipitation  
Precipitation 0.00 in - - ()
Sea Level Pressure  
Sea Level Pressure 29.73 in    
Wind  
Wind Speed 13 mph (SSW)    
Max Wind Speed 17 mph    
Max Gust Speed 33 mph    
Visibility 10 miles    
Events      
Averages and records for this station are not official NWS values.
T = Trace of Precipitation, MM = Missing Value Source: NWS Daily Summary

Daily Weather History Graph

Daily Weather History Graph

Search for Another Location

Airport or City:

Trip Planner

Search our weather history database for the weather conditions in past years. The results will help you decide how hot, cold, wet, or windy it might be!

Date:

Astronomy

Apr. 08, 2013 Rise Set
Actual Time 6:47 AM CDT 7:44 PM CDT
Civil Twilight 6:20 AM CDT 8:11 PM CDT
Nautical Twilight 5:48 AM CDT 8:44 PM CDT
Astronomical Twilight 5:15 AM CDT 9:17 PM CDT
Moon 5:37 AM CDT (4/8) 6:20 PM CDT (4/8)
Length of Visible Light 13h 51m
Length of Day
12h 56m
Waning Crescent, 3% of the Moon is Illuminated
Apr 8
Waning Crescent
Apr 10
New
Apr 18
First Quarter
Apr 25
Full
May 2
Last Quarter

Hourly Weather History & Observations

Time (CDT) Temp. Dew Point Humidity Pressure Visibility Wind Dir Wind Speed Gust Speed Precip Events Conditions
12:58 AM 59.0 °F 59.0 °F 100% 29.68 in 10.0 mi SSW 16.1 mph - N/A   Mostly Cloudy
1:58 AM 61.0 °F 60.6 °F 99% 29.68 in 10.0 mi SSW 17.3 mph - N/A   Overcast
2:39 AM 60.8 °F 60.8 °F 100% 29.70 in 10.0 mi WSW 12.7 mph - N/A   Overcast
2:40 AM 60.8 °F 60.8 °F 100% 29.72 in 10.0 mi WNW 15.0 mph - N/A   Overcast
2:44 AM 62.6 °F 60.8 °F 94% 29.73 in 10.0 mi NW 17.3 mph 26.5 mph N/A   Overcast
2:51 AM 60.8 °F 59.0 °F 94% 29.72 in 10.0 mi NW 13.8 mph 26.5 mph N/A   Light Drizzle
2:53 AM 60.8 °F 59.0 °F 94% 29.72 in 10.0 mi West 12.7 mph 26.5 mph N/A   Light Drizzle
2:58 AM 60.3 °F 59.5 °F 97% 29.70 in 10.0 mi WSW 13.8 mph 33.4 mph 0.00 in   Light Drizzle
3:01 AM 62.6 °F 59.0 °F 88% 29.70 in 10.0 mi SW 17.3 mph 33.4 mph N/A   Light Drizzle
3:02 AM 62.6 °F 59.0 °F 88% 29.71 in 10.0 mi SSW 17.3 mph 33.4 mph N/A   Mostly Cloudy
3:12 AM 62.6 °F 59.0 °F 88% 29.71 in 10.0 mi WSW 13.8 mph 24.2 mph N/A   Overcast
3:22 AM 62.6 °F 60.8 °F 94% 29.70 in 10.0 mi SSW 15.0 mph - N/A   Mostly Cloudy
3:58 AM 61.0 °F 60.8 °F 99% 29.70 in 10.0 mi WSW 6.9 mph - 0.00 in   Mostly Cloudy
4:58 AM 60.1 °F 59.9 °F 99% 29.70 in 10.0 mi SW 4.6 mph - N/A   Mostly Cloudy
5:58 AM 58.8 °F 58.8 °F 100% 29.71 in 10.0 mi South 4.6 mph - N/A   Mostly Cloudy
6:58 AM 57.9 °F 57.9 °F 100% 29.72 in 10.0 mi South 5.8 mph - N/A   Mostly Cloudy
7:58 AM 58.1 °F 58.1 °F 100% 29.74 in 10.0 mi SSW 3.5 mph - N/A   Clear
8:58 AM 62.1 °F 61.9 °F 99% 29.75 in 10.0 mi SSW 12.7 mph - N/A   Clear
9:58 AM 63.1 °F 62.6 °F 98% 29.75 in 10.0 mi SSW 11.5 mph - N/A   Mostly Cloudy
10:58 AM 64.4 °F 63.3 °F 96% 29.74 in 10.0 mi South 15.0 mph - N/A   Scattered Clouds
11:58 AM 69.1 °F 63.5 °F 82% 29.75 in 10.0 mi SSW 17.3 mph - N/A   Mostly Cloudy
12:58 PM 72.0 °F 63.9 °F 76% 29.75 in 10.0 mi SSW 16.1 mph - N/A   Scattered Clouds
1:28 PM 71.6 °F 64.4 °F 78% 29.75 in 10.0 mi SSW 11.5 mph - N/A   Overcast
1:53 PM 71.6 °F 64.4 °F 78% 29.75 in 10.0 mi South 5.8 mph - N/A   Overcast
1:58 PM 71.2 °F 64.0 °F 78% 29.75 in 10.0 mi SSW 6.9 mph - N/A   Overcast
2:58 PM 74.1 °F 63.5 °F 69% 29.73 in 10.0 mi SW 8.1 mph - N/A   Mostly Cloudy
3:58 PM 74.3 °F 64.4 °F 71% 29.72 in 10.0 mi South 6.9 mph - N/A   Overcast
4:58 PM 74.7 °F 63.7 °F 69% 29.70 in 10.0 mi SSW 8.1 mph - N/A   Mostly Cloudy
5:58 PM 72.5 °F 61.9 °F 69% 29.71 in 10.0 mi South 10.4 mph - N/A   Overcast
6:58 PM 71.4 °F 61.7 °F 71% 29.71 in 10.0 mi South 6.9 mph - N/A   Mostly Cloudy
7:58 PM 70.2 °F 61.5 °F 74% 29.72 in 10.0 mi SSE 5.8 mph - N/A   Overcast
8:58 PM 69.4 °F 62.1 °F 77% 29.75 in 10.0 mi South 8.1 mph - N/A   Overcast
9:58 PM 67.1 °F 61.9 °F 83% 29.77 in 10.0 mi South 9.2 mph - N/A   Mostly Cloudy
10:58 PM 66.9 °F 61.3 °F 82% 29.78 in 10.0 mi South 8.1 mph - N/A   Overcast
11:58 PM 66.9 °F 61.0 °F 81% 29.77 in 10.0 mi SSE 9.2 mph - N/A   Overcast